Aledo, IL

8:21 PM CST on February 07, 2016 (GMT -0600)
KILALEDO2 | | Change Station
CLOSE
Current Station
Personal Weather Station
Location: Aledo, IL
Elevation: 735 ft
Nearby Weather Stations

Elev 735 ft 41.20 °N, 90.76 °W | Updated 3 seconds ago

Partly Cloudy
Partly Cloudy
34.9 °F
Feels Like 31 °F
N
4.5
Wind Variable Wind from WSW
Gusts 4.7 mph

Today
High -- | Low -- °F
--% Chance of Precip.
Yesterday
High -- | Low -- °F
Precip. -- in
Pressure 29.80 in
Visibility 10.0 miles
Clouds Few 5000 ft
Windchill 31 °F
Dew Point 27 °F
Humidity 72%
Rainfall 0.00 in
Snow Depth Not available.
7:08 AM 5:26 PM
Waning Crescent, 0% visible
METAR KMLI 080152Z 24006KT 10SM FEW050 01/M03 A2978 RMK AO2 SLP089 T00111033
Pressure 29.80 in
Visibility 10.0 miles
Clouds Few 5000 ft
Windchill 31 °F
Dew Point 27 °F
Humidity 72%
Rainfall 0.00 in
Snow Depth Not available.
7:08 AM 5:26 PM
Waning Crescent, 0% visible
METAR KMLI 080152Z 24006KT 10SM FEW050 01/M03 A2978 RMK AO2 SLP089 T00111033

10-Day Weather Forecast

Almanac

Astronomy

Feb. 07, 2016 Rise Set
Actual Time
Civil Twilight
Nautical Twilight
Astronomical Twilight
Moon
Length of Visible Light
Length of Day
Tomorrow will be .
, % of the Moon is Illuminated

Today's Extremes

State Highs State Lows

Community

WunderPhotos

Upload Photos

1,891,364 photos uploaded!

WunderBlog® & News

Nearby

Air Quality

  Air Quality AQ Index Pollutant
Not available.

Snow Depth

Station Depth Elevation

Earthquake Activity

City Distance Mag. Time & Date
Minimum magnitude displayed is 2.5.

Coastal Water Temperatures

Place Temperature

Stations

Nearby Weather Stations

Station Location Temp. Windchill Dew Point Humidity Wind Precip. Elev Updated Type
                   

Watches & Warnings

There are currently no watches in effect.